Regional Weather Roundup
Issued by NWS New Orleans/Baton Rouge, LA

Home | Current Version | Previous Version | Text Only | Print | Product List | Glossary On
Versions: 1 2 3 4 5 6 7 8 9 10 11 12 13 14 15 16 17 18 19 20 21 22 23 24 25 26 27 28 29 30 31 32 33 34 35 36 37 38 39 40 41 42 43 44 45 46 47 48 49 50
000
ASUS44 KLIX 231112
RWRLIX
NEW ORLEANS REGIONAL WEATHER ROUNDUP
NATIONAL WEATHER SERVICE NEW ORLEANS LA
600 AM CDT SAT MAY 23 2015

NOTE: "FAIR" INDICATES FEW OR NO CLOUDS BELOW 12,000 FEET WITH NO
      SIGNIFICANT WEATHER AND/OR OBSTRUCTIONS TO VISIBILITY.
      SKY/WX - SKY CONDITION AND SIGNIFICANT WEATHER.
      TMP - AIR TEMPERATURE.     DP    - DEWPOINT TEMPERATURE.
      RH  - RELATIVE HUMIDITY.   PRES  - PRESSURE.
      HI  - HEAT INDEX.          WCI   - WIND CHILL INDEX.

*  THESE STATIONS ARE NOT NWS OR FAA STATIONS AND ARE NOT UNDER
   NWS QUALITY CONTROL.

LAZ038-040-048-061>063-065>067-069-231200-
SOUTHEAST LOUISIANA

CITY           SKY/WX    TMP DP  RH WIND       PRES   REMARKS
N.O. AUDUBON     N/A     73  70  91 MISG        N/A
N.O. INTL ARPT PTCLDY    73  67  81 E3        30.18R
N.O. LAKEFRONT CLEAR     78  69  73 E14       30.19R
SLIDELL        CLEAR     66  62  87 E3        30.19R
BATON ROUGE    CLEAR     68  66  93 E6        30.18R
BOOTHVILLE     PTCLDY    75  70  84 E3        30.18R
BELLE CHASSE   PTCLDY    68  65  90 CALM      30.18R
BOGALUSA*        N/A     64  60  88 N3        30.22R THUNDER
GALLIANO*      SUNNY     70  68  93 CALM      30.17S
NEW ROADS*       N/A     68  68  98 E3        30.18R FOG
GONZALES*        N/A     69  69 100 CALM      30.17S
HAMMOND*       CLEAR     68  61  77 E3        30.21R
HOUMA*         CLEAR     69  68  99 CALM      30.17R FOG
PORT FOURCHON* SUNNY     77  70  78 E9        30.17S

$$

MSZ070-080>082-231200-
SOUTHERN MISSISSIPPI

CITY           SKY/WX    TMP DP  RH WIND       PRES   REMARKS
MCCOMB         CLEAR     64  59  83 CALM      30.21R
GULFPORT       CLEAR     67  59  75 CALM      30.20R
BILOXI         CLEAR     67  60  78 N3        30.20R
PASCAGOULA     CLEAR     61  59  93 CALM      30.21R

$$

COASTAL OBSERVATIONS
LAKE AND NEARSHORE STATIONS

STATION/POSITION TIME  TEMP    WIND        PRES    WAVE
                       AIR SEA DIR/SP/G            HT/PER
                 (UTC) (F)     (DEG/KT/KT) (MB)    (FT/S)
PASCAGOULA       1000   71      60/  8/ 11 1021.6
WAVELAND YACHT   1000   71 76   70/  9/ 10 1022.0
GRAND ISLE       1000   78 81  100/  8/ 11 1021.2
SOUTHWEST PASS   1000   78 74   90/ 10/ 13 1021.5
NEW CANAL        1000   74 81   80/  4/  4 1020.8
SHELL BEACH      1000   78 82   90/  9/ 12 1020.9

OFFSHORE STATIONS

STATION/POSITION TIME  TEMP    WIND        PRES    WAVE
                       AIR SEA DIR/SP/G            HT/PER
                 (UTC) (F)     (DEG/KT/KT) (MB)    (FT/S)
64 S DAUPHIN ISL 1050   79 80   80/ 14/ 16 1021.9    1/ 4

$$




USA.gov is the U.S. government's official web portal to all federal, state and local government web resources and services.